Regional Weather Roundup
Issued by NWS Newport/Morehead, NC

Current Version | Previous Version | Graphics & Text | Print | Product List | Glossary Off
Versions: 1 2 3 4 5 6 7 8 9 10 11 12 13 14 15 16 17 18 19 20 21 22 23 24 25 26 27 28 29 30 31 32 33 34 35 36 37 38 39 40 41 42 43 44 45 46 47 48 49 50

000
ASUS42 KMHX 230910
RWRMHX
WEATHER ROUNDUP FOR EASTERN NORTH CAROLINA
NATIONAL WEATHER SERVICE NEWPORT/MOREHEAD CITY NC
500 AM EDT WED JUL 23 2014

NOTE: "FAIR" INDICATES FEW OR NO CLOUDS BELOW 12,000 FEET
WITH NO SIGNIFICANT WEATHER AND/OR OBSTRUCTIONS TO VISIBILITY

NCZ015>017-031-032-045>047-102-103-231000-
NORTH COAST

CITY           SKY/WX    TMP DP  RH WIND       PRES   REMARKS
EDENTON        CLOUDY    76  74  96 W3        30.05S
ELIZABETH CITY CLOUDY    74  73  97 SW6       30.04S
KITTY HAWK     CLOUDY    76  75  97 SW3       30.03S
MANTEO         NOT AVBL

$$

NCZ045>047-081-094-103-104-231000-
CENTRAL COAST

CITY           SKY/WX    TMP DP  RH WIND       PRES   REMARKS
FRISCO         PTCLDY    78  75  90 W7        30.05F
SWANQUARTER      N/A     77 N/A N/A W9        30.03R

$$

NCZ095-097-098-100-101-231000-
SOUTHERN COAST

CITY           SKY/WX    TMP DP  RH WIND       PRES   REMARKS
BEAUFORT       PTCLDY    78  74  87 NW7       30.06R
CEDAR ISLAND     N/A     75 N/A N/A SW2       30.09S
JACKSONVILLE   CLEAR     73  72  96 CALM      30.06S
NEWPORT        NOT AVBL
PINEY ISLAND   SUNNY     76  75  97 W6        30.05F
WILMINGTON     CLEAR     74  72  93 CALM      30.06S


$$

NCZ011>013-027>030-043-044-078>080-089-090>093-098-231000-
COASTAL PLAIN

CITY           SKY/WX    TMP DP  RH WIND       PRES   REMARKS
AHOSKIE        MOCLDY    70  69  96 CALM      30.04F
CLINTON        CLOUDY    74  74 100 SW3       30.06S FOG
ELIZABETHTOWN  CLOUDY    74  74 100 CALM      30.06S
GOLDSBORO      CLOUDY    76  76 100 SW5       30.04S
GREENVILLE     CLOUDY    73  73 100 CALM      30.06F
HAVELOCK       CLEAR     73  71  93 S3        30.07F
KENANSVILLE    CLOUDY    74  73  94 CALM      30.07S
KINSTON        CLOUDY    76  75  96 SW3       30.06S
NEW BERN       MOCLDY    76  73  91 CALM      30.07S
RICHLANDS      CLOUDY    73  72  94 SW5       30.07R
ROANOKE RAPIDS NOT AVBL
ROCKY MOUNT    FOG       73  72  96 CALM      30.05S VSB 1/2
WASHINGTON     CLOUDY    75  73  95 CALM      30.06S
WHITEVILLE     CLEAR     73  72  96 CALM      30.06S

$$

AMZ130-135-150-152-154-156-158-170-250-252-270-ANZ085-086-088-633-658-670-231000-
MARINE OBSERVATIONS

STATION/POSITION TIME  TEMP    WIND        PRES    WAVE   SWELL
                       AIR SEA DIR/SP/G            HT/PER HT/PER
                 (UTC) (F)     (DEG/KT/KT) (MB)    (FT/S) (FT/S)
CHESAPEAKE LIGHT NOT AVBL
BUOY 44014       0900   77 78  220/ 10/ 12 1016.4    3/ 8   2/ 8
DUCK             0900   76 74  240/  8/ 10 1016.5
2E DUCK          0900                        N/A     2/ 8
OREGON INLET     0900   77 80  230/ 10/ 12 1017.2
BUOY 44095       0900      77                N/A     3/ 7
20E OREGON INLET NOT AVBL
HATTERAS CG      0900   77 82  230/  6/  9 1018.0
DIAMOND BUOY     0900          VRB 12/ 14  1017.5    4/ 5   2/ 7
CAPE LOOKOUT     0800   78     240/  9/ 12 1017.7
BEAUFORT LAB     0900   79 80  280/  3/  7 1017.5
30 SE NEW RIVER  0900   80 80  230/ 10/ 12 1018.1    4/ 6   3/ 6
5 SE WRIGHTSVILL 0800   76 81  240/  8/ 10   N/A
BUOY 41002       0824   82 82  200/ 14/ 16 1020.1    3/ 6   2/ 6
BUOY 41004       0900   81 82  240/  4/  6 1016.9    3/ 8   3/ 8

$$



USA.gov is the U.S. government's official web portal to all federal, state and local government web resources and services.